Tracking 19286 objects as of 19-Nov-2018
HD Live streaming from Space Station
objects crossing your sky now

COSMOS 620

Track COSMOS 620 now!
10-day predictions
COSMOS 620 is classified as:


NORAD ID: 6988
Int'l Code: 1973-104D
Perigee: 1,466.1 km
Apogee: 1,500.0 km
Inclination: 74.0 °
Period: 115.5 minutes
Semi major axis: 7854 km
RCS: 0.6997 m2 (medium)
Launch date: December 19, 1973
Source: Commonwealth of Independent States (former USSR) (CIS)
Launch site: PLESETSK MISSILE AND SPACE COMPLEX (PKMTR)
aabbcc
Your satellite tracking list
Your tracking list is empty




NASA's NSSDC Master Catalog

Two Line Element Set (TLE):
1  6988U 73104D   18322.91133348 +.00000011 +00000-0 +18104-3 0  9993
2  6988 074.0262 155.9095 0021564 109.3556 355.1203 12.47269415045116
Source of the keplerian elements: AFSPC